Location: Asheville, NC
(35.6000°N, 82.5500°W)
Time: 10:50:09

N. Korean satellite - Pass Details

Date: 08 January 2018
Orbit: 460 x 512 km, 97.2° (Epoch: 22 March)

Event Time Altitude Azimuth Distance (km) Brightness Sun altitude
Rises 18:57:10 0° 186° (S) 2,601 10.6 -16.6°
Reaches altitude 10° 18:59:22 10° 195° (SSW) 1,716 9.7 -17.0°
Maximum altitude 19:02:47 35° 262° (W) 829 8.4 -17.7°
Drops below altitude 10° 19:06:11 10° 329° (NNW) 1,707 9.5 -18.3°
Sets 19:08:23 0° 339° (NNW) 2,586 10.3 -18.8°
